This is the latest recevied weather packets stored in our database for station/object KC1IUC-15. If no packets are shown the sender has not sent any weather packets the latest 10 day(s).
| Time | Temp. | Humidity | Pressure | Rain* | Wind** | Luminosity | Snow |
|---|---|---|---|---|---|---|---|
| 1778016603 | 22.78° C | 50% | 1006.9 hPa | 0 mm | - | 248 W/m² | - |
| 1778016304 | 22.22° C | 51% | 1006.5 hPa | 0 mm | - | 274 W/m² | - |
| 1778016003 | 22.78° C | 50% | 1006.5 hPa | 0 mm | - | 302 W/m² | - |
| 1778015703 | 22.78° C | 50% | 1006.5 hPa | 0 mm | - | 289 W/m² | - |
| 1778015403 | 22.78° C | 50% | 1006.5 hPa | 0 mm | - | 176 W/m² | - |
| 1778015103 | 22.78° C | 50% | 1006.5 hPa | 0 mm | - | 173 W/m² | - |
| 1778014803 | 22.78° C | 51% | 1007.2 hPa | 0 mm | - | 234 W/m² | - |
| 1778014503 | 23.33° C | 50% | 1006.9 hPa | 0 mm | - | 245 W/m² | - |
| 1778014203 | 23.33° C | 49% | 1006.9 hPa | 0 mm | - | 284 W/m² | - |
| 1778013903 | 23.33° C | 48% | 1006.5 hPa | 0 mm | - | 279 W/m² | - |
| 1778013603 | 23.33° C | 50% | 1006.9 hPa | 0 mm | - | 235 W/m² | - |
| 1778013303 | 23.89° C | 49% | 1006.5 hPa | 0 mm | - | 200 W/m² | - |
| 1778013003 | 23.89° C | 47% | 1007.2 hPa | 0 mm | - | 299 W/m² | - |
| 1778012703 | 24.44° C | 46% | 1006.5 hPa | 0 mm | - | 315 W/m² | - |
| 1778012403 | 24.44° C | 49% | 1006.9 hPa | 0 mm | - | 355 W/m² | - |
| 1778012103 | 24.44° C | 48% | 1006.5 hPa | 0 mm | - | 386 W/m² | - |
| 1778011804 | 24.44° C | 47% | 1006.9 hPa | 0 mm | - | 405 W/m² | - |
| 1778011503 | 24.44° C | 47% | 1006.9 hPa | 0 mm | - | 418 W/m² | - |
| 1778011203 | 24.44° C | 46% | 1006.9 hPa | 0 mm | - | 422 W/m² | - |
| 1778010903 | 24.44° C | 46% | 1006.9 hPa | 0 mm | - | 432 W/m² | - |
| 1778010603 | 25° C | 45% | 1007.2 hPa | 0 mm | - | 455 W/m² | - |
| 1778010303 | 25° C | 46% | 1007.2 hPa | 0 mm | - | 463 W/m² | - |
| 1778010003 | 25° C | 46% | 1007.2 hPa | 0 mm | - | 489 W/m² | - |
| 1778009703 | 25° C | 45% | 1007.2 hPa | 0 mm | - | 504 W/m² | - |
| 1778009403 | 25° C | 46% | 1007.2 hPa | 0 mm | - | 521 W/m² | - |
* Rain latest hour (hover to see other rain measurements)
** Current wind speed in m/s (hover to see current wind gust speed)